SCP
0 0 0 0 0 0 0 0 0 0 0 0 0 0 0 0 0 0 0 0 0 1 1 1 1 1 1 1 1 1 1 1 1 1 1 1 1 1 0 0 0 0 0 0 0 0 0 0 0
0 0 0 0 0 0 0 0 0 0 0 0 0 0 0 0 0 0 0 0 0 1 1 1 1 1 1 1 1 1 1 1 1 1 1 1 1 1 0 0 0 0 0 0 0 0 0 0 0
0 0 0 0 0 0 0 0 0 0 0 0 0 0 0 0 0 0 0 0 1 1 1 1 1 1 1 1 1 1 1 1 1 1 1 1 1 1 0 0 0 0 0 0 0 0 0 0 0
0 0 0 0 0 0 0 0 0 0 0 0 0 0 0 0 0 0 0 1 1 1 1 1 1 1 1 1 1 1 1 1 1 1 1 1 1 1 1 0 0 0 0 0 0 0 0 0 0
0 0 0 0 0 0 0 0 0 0 0 0 0 0 0 0 0 0 1 1 1 1 1 1 1 1 1 1 1 1 1 1 1 1 1 1 1 1 1 1 0 0 0 0 0 0 0 0 0
0 0 0 0 0 0 0 0 0 0 0 0 0 0 1 1 1 1 1 1 1 1 1 1 1 1 1 1 1 1 1 1 1 1 1 1 1 1 1 1 1 0 0 0 0 0 0 0 0
0 0 0 0 0 0 0 0 0 0 0 0 0 1 1 1 1 1 1 1 1 1 1 1 1 1 1 1 1 1 1 1 1 1 1 1 1 1 1 1 1 0 0 0 0 0 0 0 0
0 0 0 0 0 0 0 0 0 0 0 0 1 1 1 1 1 1 1 1 1 1 1 1 1 1 1 1 1 1 1 1 1 1 1 1 1 1 1 1 1 0 0 0 0 0 0 0 0
0 0 0 0 0 0 0 0 0 0 0 1 1 1 1 1 1 1 1 1 1 1 1 1 1 1 1 1 1 1 1 1 1 1 1 1 1 1 1 1 1 1 0 0 0 0 0 0 0
0 0 0 0 0 0 0 0 0 0 0 1 1 1 1 1 2 1 1 1 1 1 1 1 1 1 1 1 1 1 1 1 1 1 1 1 1 1 1 1 1 1 1 0 0 0 0 0 0
0 0 0 0 0 0 0 0 0 0 0 1 1 1 1 1 1 1 1 1 1 1 1 1 1 1 1 1 1 1 1 1 1 1 1 1 1 1 1 1 1 1 1 1 1 1 0 0 0
0 0 0 0 0 0 0 0 0 0 0 0 1 1 1 1 1 1 1 1 1 1 1 1 1 1 1 1 1 1 1 1 1 1 1 1 1 1 1 1 1 1 1 1 1 1 0 0 0
0 0 0 0 0 0 0 0 0 0 0 1 1 1 1 1 1 1 1 1 1 1 1 1 1 1 1 1 1 1 1 1 1 1 1 1 1 1 1 1 1 1 1 1 0 0 0 0 0
0 0 0 0 0 0 0 0 0 0 1 1 1 1 1 1 1 1 1 1 1 1 1 1 1 1 1 1 1 1 1 1 1 1 1 1 1 1 0 0 0 0 0 0 0 0 0 0 0
0 0 0 0 0 0 0 0 0 0 1 1 1 1 1 1 1 1 1 1 1 1 1 1 1 1 1 1 1 1 1 1 1 1 0 0 0 0 0 0 0 0 0 0 0 0 0 0 0
0 0 0 0 0 0 0 0 0 0 1 1 1 1 1 1 1 1 1 1 1 1 1 1 1 1 1 1 1 1 0 0 0 0 0 0 0 0 0 0 0 0 0 0 0 0 0 0 0
0 0 0 0 0 0 0 0 0 0 0 1 1 1 1 1 1 0 0 0 1 1 1 0 0 0 0 0 0 0 0 0 0 0 0 0 0 0 0 0 0 0 0 0 0 0 0 0 0
0 0 0 0 0 0 0 0 0 0 0 1 1 1 1 1 0 0 0 0 0 0 0 0 0 0 0 0 0 0 0 0 0 0 0 0 0 0 0 0 0 0 0 0 0 0 0 0 0
0 0 0 0 0 0 0 0 0 0 0 0 0 1 1 1 0 0 0 0 0 0 0 0 0 0 0 0 0 0 0 0 0 0 0 0 0 0 0 0 0 0 0 0 0 0 0 0 0
0 0 0 0 0 0 0 0 0 0 0 0 0 0 0 0 0 0 0 0 0 0 0 0 0 0 0 0 0 0 0 0 0 0 0 0 0 0 0 0 0 0 0 0 0 0 0 0 0
0 0 0 0 0 0 0 0 0 0 0 0 0 0 0 0 0 0 0 0 0 0 0 0 0 0 0 0 0 0 0 0 0 0 0 0 0 0 0 0 0 0 0 0 0 0 0 0 0
0 0 0 0 0 0 0 0 0 0 0 0 0 0 0 0 0 0 0 0 0 0 0 0 0 0 0 0 0 0 0 0 0 0 0 0 0 0 0 0 0 0 0 0 0 0 0 0 0
0 0 0 0 0 0 0 0 0 0 0 0 0 0 0 0 0 0 0 0 0 0 0 0 0 0 0 0 0 0 0 0 0 0 0 0 0 0 0 0 0 0 0 0 0 0 0 0 0
0 0 0 0 0 0 0 0 0 0 0 0 0 0 0 0 0 0 0 0 0 0 0 0 0 0 0 0 0 0 0 0 0 0 0 0 0 0 0 0 0 0 0 0 0 0 0 0 0
0 0 0 0 0 0 0 0 0 0 0 0 0 0 0 0 0 0 0 0 0 0 0 0 0 0 0 0 0 0 0 0 0 0 0 0 0 0 0 0 0 0 0 0 0 0 0 0 0
0 0 0 0 0 0 0 0 0 0 0 0 0 0 0 0 0 0 0 0 0 0 0 0 0 0 0 0 0 0 0 0 0 0 0 0 0 0 0 0 0 0 0 0 0 0 0 0 0
0 0 0 0 0 0 0 0 0 0 0 0 0 0 0 0 0 0 0 0 0 0 0 0 0 0 0 0 0 0 0 0 0 0 0 0 0 0 0 0 0 0 0 0 0 0 0 0 0
0 0 0 0 0 0 0 0 0 0 0 0 0 0 0 0 0 0 0 0 0 0 0 0 0 0 0 0 0 0 0 0 0 0 0 0 0 0 0 0 0 0 0 0 0 0 0 0 0
0 0 0 0 0 0 0 0 0 0 0 0 0 0 0 0 0 0 0 0 0 0 0 0 0 0 0 0 0 0 0 0 0 0 0 0 0 0 0 0 0 0 0 0 0 0 0 0 0
0 0 0 0 0 0 0 0 0 0 0 0 0 0 0 0 0 0 0 0 0 0 0 0 0 0 0 0 0 0 0 0 0 0 0 0 0 0 0 0 0 0 0 0 0 0 0 0 0
Wind_Speed
4 1 2 4 6 5 3 6 4 4 4 2 0 3 6 6 6 4 1 10 13 14 14 16 18 18 17 16 16 16 16 16 16 16 17 16 15 14 14 13 12 12 12 12 12 12 12 12 12
1 1 4 5 5 0 6 5 4 4 3 3 3 1 3 2 1 3 4 8 13 14 12 14 19 18 17 17 16 16 16 16 16 16 16 16 15 14 13 13 13 12 11 11 11 11 12 12 12
0 3 5 5 4 5 6 4 4 5 5 2 1 1 1 1 1 3 4 11 12 12 10 14 20 18 18 17 17 16 16 16 16 15 15 15 14 13 12 12 12 12 11 11 11 11 11 11 11
3 5 6 4 4 6 6 6 6 8 6 1 2 0 1 3 2 4 10 12 13 11 10 13 18 18 17 17 17 16 16 16 15 15 14 13 13 12 12 12 12 11 11 10 11 11 10 10 10
5 5 4 1 4 5 5 7 5 5 4 2 2 1 1 5 7 10 12 12 12 10 8 10 15 16 16 16 16 15 15 15 14 13 13 12 11 11 11 11 11 11 10 10 10 10 9 9 8
5 5 4 2 5 6 6 5 3 4 4 2 2 2 1 4 7 9 10 10 10 10 7 8 13 14 14 15 14 13 13 12 12 12 11 10 10 9 10 10 10 9 9 9 9 9 8 7 7
6 5 4 3 3 5 4 2 2 3 2 1 2 4 2 5 7 9 10 10 9 9 8 6 7 8 11 12 12 11 11 10 10 10 10 10 9 9 9 9 8 8 8 8 8 8 7 7 6
5 6 3 2 2 4 4 4 3 2 2 2 3 4 2 4 9 11 11 10 9 7 6 6 5 5 4 6 10 10 10 10 10 10 10 10 9 9 9 7 7 8 8 8 7 7 6 6 5
4 6 2 4 4 4 3 4 4 3 3 4 5 3 5 12 12 12 10 9 8 7 5 5 5 5 5 4 6 8 8 8 8 8 9 8 4 4 5 7 8 8 8 8 7 7 6 5 4
5 4 6 5 4 3 4 2 3 3 5 5 6 8 11 12 11 11 10 8 7 7 5 4 5 5 5 5 4 3 4 4 4 3 4 3 3 2 4 5 9 9 8 8 8 7 6 4 2
5 6 5 5 5 3 2 3 2 3 4 2 5 8 10 10 9 8 7 6 6 6 5 4 4 4 4 3 4 3 2 2 3 3 3 3 2 2 2 1 3 4 5 3 4 3 2 2 2
3 5 4 4 2 2 2 0 2 3 2 3 6 9 9 9 8 7 6 5 4 5 4 4 4 3 3 3 2 3 2 2 2 2 3 3 2 2 2 2 2 2 1 2 2 2 3 3 3
4 4 3 4 2 1 2 1 3 3 4 7 9 9 8 8 6 4 4 4 4 4 4 3 3 4 3 3 2 2 2 2 2 2 2 3 3 3 3 2 2 2 2 2 2 2 3 3 3
3 3 4 3 1 1 4 2 3 3 5 8 9 8 6 6 6 5 4 4 3 2 2 3 3 3 3 2 2 3 2 2 2 1 0 1 2 3 3 3 3 3 3 2 2 2 2 2 2
1 2 4 2 0 1 5 4 2 4 6 8 8 7 7 6 5 4 3 2 2 1 1 1 2 3 3 3 2 2 3 3 2 1 0 1 1 2 3 2 3 2 2 2 2 2 2 2 2
3 3 3 5 2 0 4 1 1 4 7 8 7 7 7 6 5 4 4 3 2 2 2 2 1 3 3 2 2 2 2 3 2 1 1 0 1 1 2 2 3 2 2 3 3 3 3 2 3
5 3 2 6 4 2 4 2 2 3 6 7 6 6 6 6 7 6 5 4 4 4 4 4 3 2 2 3 2 2 2 2 2 1 1 1 1 2 2 2 2 2 3 3 4 3 3 4 4
1 0 2 4 4 4 4 3 3 4 6 7 6 6 7 6 6 5 6 5 5 4 4 4 4 3 2 2 2 2 2 2 2 1 1 1 1 1 2 2 2 3 3 3 3 4 3 4 5
2 1 3 4 2 3 4 4 4 5 6 6 6 6 6 5 5 6 6 6 6 6 6 5 4 3 3 2 2 2 2 2 2 2 3 2 2 2 1 1 1 1 3 4 5 4 6 4 5
2 2 3 3 2 4 5 5 4 4 4 4 5 5 5 5 6 7 7 7 7 6 6 5 5 4 3 2 1 1 2 2 2 2 4 5 4 3 2 1 0 0 1 3 5 5 5 4 4
3 4 4 2 2 4 5 3 1 3 4 5 5 5 5 5 5 6 7 8 8 8 7 5 5 5 4 3 2 3 2 2 2 3 3 5 5 4 4 3 2 1 1 1 3 5 6 5 3
4 5 5 3 3 0 2 1 2 2 3 4 5 4 5 5 5 5 7 8 8 8 7 6 6 5 5 3 3 3 3 2 2 2 2 4 5 5 5 4 3 2 1 1 2 2 3 5 5
5 1 3 3 4 2 1 2 4 2 4 4 5 4 4 4 4 5 6 7 7 7 7 7 6 6 6 5 4 4 4 3 3 3 4 4 5 6 6 5 5 4 3 3 3 3 3 2 3
4 6 6 5 5 1 2 3 5 3 4 5 6 5 4 4 5 6 6 7 7 8 8 8 8 8 7 7 7 6 6 5 5 6 5 5 4 6 8 7 6 6 5 5 5 5 5 4 5
4 6 4 5 4 4 1 2 5 1 1 5 8 7 5 4 5 5 6 7 7 9 9 8 9 9 8 8 8 7 7 7 7 6 6 5 5 5 7 7 7 6 6 6 7 7 7 6 6
3 7 7 4 4 4 2 4 3 2 3 5 8 8 7 5 5 5 6 6 7 8 8 8 9 9 9 9 8 8 8 6 6 7 6 5 5 5 6 7 7 8 8 8 8 8 7 7 8
4 2 5 7 2 1 4 4 1 4 5 7 8 8 7 5 6 6 6 6 7 7 8 8 8 9 9 9 9 9 8 8 7 7 7 5 5 6 8 8 8 9 9 9 8 7 7 8 8
4 7 5 5 4 3 4 4 5 8 8 8 9 8 7 6 6 5 5 6 6 7 7 8 9 9 9 9 8 8 8 8 8 8 9 8 8 8 8 9 9 9 9 9 9 8 8 10 8
3 3 5 4 4 5 3 7 4 7 10 12 10 9 9 8 6 5 5 5 6 7 7 8 8 9 9 9 8 9 8 8 9 8 8 8 8 8 9 9 9 10 9 9 9 9 9 10 9
3 5 6 4 3 4 3 8 2 2 7 10 11 10 9 8 7 6 5 6 6 7 7 7 7 8 7 7 8 8 8 8 9 9 8 8 8 8 9 9 9 9 9 9 9 10 9 9 9
Wind_Direction
310 333 96 66 54 48 259 254 248 295 304 318 206 166 164 167 168 207 127 133 129 138 145 147 147 145 141 136 131 128 125 124 124 125 127 129 131 133 135 137 137 137 136 135 133 130 128 127 128
296 88 65 64 90 217 267 252 255 260 282 323 333 85 120 188 128 117 115 134 132 138 142 147 148 146 143 139 136 134 132 130 129 129 131 132 134 135 137 138 138 138 137 137 135 133 131 131 133
336 62 87 82 132 191 243 252 253 285 298 298 300 354 137 209 116 143 137 133 127 133 138 149 149 147 145 143 141 139 137 136 135 134 135 136 137 138 139 141 141 140 139 138 137 135 134 134 136
85 56 59 88 217 227 235 270 288 301 310 274 162 28 26 12 78 116 123 129 127 131 136 150 150 149 148 147 146 144 143 142 142 142 141 142 142 142 143 144 144 142 141 140 138 136 137 138 138
61 80 76 41 254 256 250 264 271 278 281 274 135 145 24 20 71 105 121 127 128 127 129 144 147 149 151 150 149 149 148 147 147 147 147 147 146 147 147 148 147 145 145 144 142 139 140 140 141
60 72 99 231 268 276 270 263 290 276 266 267 135 127 46 49 82 104 112 112 117 120 117 133 146 149 151 153 152 151 151 151 151 151 152 152 152 153 152 152 151 150 150 150 148 146 144 142 142
105 104 152 200 270 289 274 299 298 291 299 293 138 123 77 61 83 96 97 98 103 113 119 125 136 146 152 151 150 152 153 154 155 156 157 159 160 162 162 160 159 158 158 160 158 154 151 148 148
120 105 126 211 236 269 289 328 306 315 311 1 76 125 142 118 104 95 92 93 97 101 112 121 117 119 128 147 154 155 159 161 164 167 169 171 173 174 175 168 170 171 173 173 170 166 163 160 160
88 79 171 220 211 255 309 339 329 350 43 43 47 66 108 118 109 102 99 99 109 114 117 126 123 123 125 137 155 154 163 170 173 177 179 175 173 177 182 183 187 186 187 186 183 178 175 172 172
92 133 222 221 211 245 308 314 309 23 34 45 64 71 104 112 113 114 121 127 134 139 141 135 135 139 146 159 146 143 156 165 163 158 170 162 156 181 189 197 201 199 198 198 196 192 186 171 153
146 186 229 242 229 236 282 313 340 88 44 62 116 117 117 112 112 117 125 134 144 149 149 145 142 146 153 152 147 151 154 154 151 154 156 149 152 172 185 187 216 213 206 198 198 190 165 160 166
175 232 225 254 212 195 207 279 25 58 108 95 110 124 123 121 121 127 131 135 136 139 141 146 152 145 145 133 143 144 145 154 153 158 159 158 163 186 190 193 198 201 194 186 182 172 167 170 177
207 256 245 250 266 208 115 102 98 73 89 91 99 106 112 115 110 99 103 110 121 138 137 142 146 144 144 131 133 139 136 140 147 155 172 173 183 201 202 203 195 200 197 194 194 185 181 178 178
228 249 283 283 264 194 128 92 96 109 99 95 99 101 100 99 95 87 86 95 108 133 147 150 153 139 125 119 129 137 130 121 110 95 195 197 203 204 195 199 201 202 196 196 197 192 184 175 162
275 319 334 333 346 185 117 48 75 126 111 98 98 100 93 83 81 84 89 95 105 114 90 131 147 120 123 128 138 129 124 119 130 139 131 218 219 207 199 195 207 204 190 185 179 179 164 164 150
44 40 350 313 356 218 124 151 107 122 116 105 100 93 84 71 62 47 45 45 45 60 53 32 89 101 112 118 129 117 112 115 124 118 143 223 263 235 225 214 211 200 196 188 191 185 169 157 139
32 45 325 317 357 52 95 139 136 109 117 110 102 94 81 65 47 32 28 27 29 36 42 41 41 75 104 109 110 102 95 111 116 118 145 212 256 259 233 234 227 204 201 195 203 183 163 155 137
235 341 312 303 332 53 84 122 115 99 110 112 105 94 81 67 45 31 31 34 38 44 49 48 46 59 81 95 95 86 74 60 65 58 42 42 334 288 242 231 219 200 201 200 198 169 148 143 131
169 207 276 276 297 78 103 112 99 104 111 115 110 101 89 67 44 38 36 37 40 38 41 40 37 38 56 90 101 96 80 53 41 33 23 31 21 356 293 252 223 201 207 204 184 160 147 140 129
184 245 273 311 28 102 107 91 87 94 109 121 118 109 92 70 44 32 34 35 33 31 27 26 26 28 35 54 82 96 96 81 61 31 25 23 24 13 359 345 348 82 211 198 179 158 151 152 153
217 201 221 209 39 63 108 76 116 95 102 108 102 97 87 78 53 32 31 29 29 24 17 15 22 27 30 43 76 89 77 64 40 28 24 20 27 30 27 21 27 48 105 158 175 171 163 161 159
247 227 196 166 125 206 131 182 248 161 144 139 125 112 91 73 58 45 36 30 26 17 15 20 23 29 34 44 73 100 103 90 55 41 35 31 31 35 35 34 35 43 51 104 148 158 152 157 160
211 101 119 123 130 79 42 143 269 176 193 179 150 125 97 79 67 56 43 35 29 22 20 23 29 33 38 48 61 77 80 83 78 62 52 44 38 35 35 40 44 46 47 57 82 97 103 130 140
140 74 60 53 73 78 230 165 258 213 205 169 152 135 118 95 72 59 47 40 34 31 29 28 35 36 38 52 58 69 76 75 72 62 52 44 37 32 32 39 43 47 48 52 65 76 84 92 97
95 89 36 6 13 253 256 186 245 200 150 165 159 145 123 99 76 59 48 40 37 35 34 35 38 39 40 52 56 59 66 67 64 61 56 51 43 37 32 39 43 47 52 56 65 72 71 78 88
156 137 154 190 221 272 315 232 251 92 89 119 130 127 115 100 83 68 60 50 43 41 38 40 45 45 44 50 53 55 59 64 61 59 60 56 51 46 42 48 51 51 56 60 63 67 67 70 74
128 133 154 130 148 276 279 275 265 134 123 126 129 125 121 108 91 75 62 55 50 48 44 45 50 51 50 51 55 54 55 62 63 62 60 56 50 55 53 55 56 55 57 60 65 67 67 71 68
117 139 99 115 148 252 282 263 236 194 184 164 153 143 131 116 99 86 74 64 57 55 52 51 55 57 54 52 55 60 56 60 63 65 62 58 54 53 56 58 58 58 57 60 65 64 62 68 63
96 91 101 111 150 163 253 268 228 199 183 171 161 148 139 127 116 100 87 75 66 59 57 54 55 58 56 55 56 58 57 58 61 61 59 58 57 57 58 58 60 60 58 59 65 64 64 67 63
150 159 147 150 210 176 193 265 345 205 163 153 146 142 135 128 120 112 101 87 74 66 63 60 58 60 59 61 61 61 61 61 61 59 55 58 59 58 59 60 60 61 60 59 63 67 64 67 65